When you browse on this site, cookies collect data to enhance your experience and personalize the content and advertising you see.
Visit our Privacy Policy to learn more. By continuing to use the site, you agree to this use of cookies and data.
  • In Hungary
  • List of Countries
  • For 7 days
  • Water Temperature
  • Satellite Maps
  • Weather Map
  • News
  • Weather Widgets
  • user-avatar
    Login

    Hourly Weather Kisela Voda

    Today, 22 February, Friday

    Time Temperature Precipitation Wind Pressure Humidity
    00:00 +1°C° 0 mm 0 mps 682 mmHg 75%
    01:00 +1°C° 0 mm 0 mps 681 mmHg 73%
    02:00 +1°C° 0 mm 0 mps 681 mmHg 73%
    03:00 +1°C° 0 mm 0 mps 680 mmHg 74%
    04:00 +1°C° 0 mm 0 mps 680 mmHg 75%
    05:00 +1°C° 0 mm 0 mps 680 mmHg 74%
    06:00 +1°C° 0 mm 0 mps 679 mmHg 74%
    07:00 +2°C° 0 mm 0 mps 680 mmHg 71%
    08:00 +3°C° 0.1 mm 0 mps 679 mmHg 69%
    09:00 +4°C° 0.1 mm 0 mps 679 mmHg 66%
    10:00 +5°C° 0.1 mm 0 mps 679 mmHg 63%
    11:00 +5°C° 0.4 mm 0 mps 678 mmHg 65%
    12:00 +6°C° 0.4 mm 1 mps 678 mmHg 66%
    13:00 +6°C° 0.4 mm 1 mps 677 mmHg 68%
    14:00 +6°C° 0.3 mm 1 mps 677 mmHg 69%
    15:00 +6°C° 0.3 mm 1 mps 677 mmHg 70%
    16:00 +6°C° 0.3 mm 1 mps 677 mmHg 71%
    17:00 +6°C° 0.4 mm 1 mps 677 mmHg 75%
    18:00 +5°C° 0.4 mm 1 mps 676 mmHg 80%
    19:00 +4°C° 0.4 mm 1 mps 676 mmHg 85%
    20:00 +4°C° 0.4 mm 1 mps 676 mmHg 86%
    21:00 +3°C° 0.4 mm 2 mps 676 mmHg 88%
    22:00 +2°C° 0.4 mm 2 mps 676 mmHg 90%
    23:00 +1°C° 0.8 mm 3 mps 676 mmHg 88%

    Tomorrow, 23 February, Saturday

    Time Temperature Precipitation Wind Pressure Humidity
    00:00 -1°C° 0.8 mm 4 mps 676 mmHg 86%
    01:00 -3°C° 0.8 mm 6 mps 676 mmHg 84%
    02:00 -5°C° 0 mm 6 mps 676 mmHg 80%
    03:00 -8°C° 0 mm 6 mps 676 mmHg 77%
    04:00 -10°C° 0 mm 6 mps 675 mmHg 73%
    05:00 -10°C° 0.2 mm 5 mps 676 mmHg 76%
    06:00 -11°C° 0.2 mm 5 mps 676 mmHg 79%
    07:00 -11°C° 0.2 mm 5 mps 677 mmHg 82%
    08:00 -11°C° 0.5 mm 6 mps 677 mmHg 82%
    09:00 -10°C° 0.5 mm 6 mps 678 mmHg 82%
    10:00 -10°C° 0.5 mm 6 mps 679 mmHg 82%
    11:00 -9°C° 0.3 mm 6 mps 679 mmHg 81%
    12:00 -9°C° 0.3 mm 6 mps 679 mmHg 79%
    13:00 -9°C° 0.3 mm 6 mps 680 mmHg 77%
    14:00 -8°C° 0.2 mm 5 mps 680 mmHg 76%
    15:00 -8°C° 0.2 mm 5 mps 681 mmHg 75%
    16:00 -7°C° 0.2 mm 5 mps 681 mmHg 74%
    17:00 -8°C° 0.1 mm 5 mps 682 mmHg 75%
    18:00 -10°C° 0.1 mm 5 mps 682 mmHg 77%
    19:00 -10°C° 0.1 mm 4 mps 683 mmHg 78%
    20:00 -10°C° 0 mm 4 mps 683 mmHg 78%
    21:00 -11°C° 0 mm 4 mps 683 mmHg 79%
    22:00 -10°C° 0 mm 3 mps 683 mmHg 80%
    23:00 -10°C° 0 mm 3 mps 684 mmHg 80%

    Day after tomorrow, 24 February, Sunday

    Time Temperature Precipitation Wind Pressure Humidity
    00:00 -10°C° 0 mm 3 mps 684 mmHg 80%
    01:00 -12°C° 0 mm 3 mps 684 mmHg 81%
    02:00 -12°C° 0 mm 3 mps 684 mmHg 81%
    03:00 -12°C° 0 mm 3 mps 684 mmHg 82%
    04:00 -12°C° 0 mm 3 mps 684 mmHg 83%
    05:00 -12°C° 0 mm 3 mps 684 mmHg 82%
    06:00 -12°C° 0 mm 3 mps 684 mmHg 82%
    07:00 -12°C° 0 mm 3 mps 684 mmHg 82%
    08:00 -9°C° 0 mm 3 mps 685 mmHg 77%
    09:00 -8°C° 0 mm 3 mps 685 mmHg 72%
    10:00 -7°C° 0 mm 3 mps 685 mmHg 67%
    11:00 -6°C° 0 mm 3 mps 685 mmHg 65%
    12:00 -5°C° 0 mm 3 mps 685 mmHg 63%
    13:00 -4°C° 0 mm 3 mps 685 mmHg 62%
    14:00 -4°C° 0 mm 3 mps 685 mmHg 63%
    15:00 -4°C° 0 mm 3 mps 685 mmHg 64%
    16:00 -4°C° 0 mm 3 mps 685 mmHg 66%
    17:00 -5°C° 0 mm 3 mps 685 mmHg 70%
    18:00 -6°C° 0 mm 2 mps 685 mmHg 75%
    19:00 -7°C° 0 mm 2 mps 685 mmHg 80%
    20:00 -7°C° 0 mm 2 mps 686 mmHg 79%
    21:00 -8°C° 0 mm 2 mps 686 mmHg 78%
    22:00 -8°C° 0 mm 2 mps 686 mmHg 77%
    23:00 -8°C° 0 mm 2 mps 686 mmHg 77%

    25 February, Monday

    Time Temperature Precipitation Wind Pressure Humidity
    00:00 -8°C° 0 mm 2 mps 686 mmHg 76%
    01:00 -8°C° 0 mm 2 mps 686 mmHg 76%
    02:00 -9°C° 0 mm 2 mps 686 mmHg 75%
    03:00 -9°C° 0 mm 2 mps 686 mmHg 74%
    04:00 -9°C° 0 mm 2 mps 685 mmHg 74%
    05:00 -9°C° 0 mm 2 mps 685 mmHg 72%
    06:00 -9°C° 0 mm 2 mps 686 mmHg 71%
    07:00 -9°C° 0 mm 2 mps 686 mmHg 70%
    08:00 -7°C° 0 mm 2 mps 686 mmHg 62%
    09:00 -6°C° 0 mm 3 mps 686 mmHg 54%
    10:00 -4°C° 0 mm 3 mps 686 mmHg 47%
    11:00 -2°C° 0 mm 3 mps 686 mmHg 47%
    12:00 -1°C° 0 mm 3 mps 685 mmHg 47%
    13:00 0°C° 0 mm 3 mps 685 mmHg 46%
    14:00 0°C° 0 mm 3 mps 684 mmHg 50%
    15:00 0°C° 0 mm 3 mps 684 mmHg 53%
    16:00 0°C° 0 mm 3 mps 684 mmHg 57%
    17:00 -2°C° 0 mm 3 mps 684 mmHg 62%
    18:00 -4°C° 0 mm 3 mps 684 mmHg 67%
    19:00 -6°C° 0 mm 3 mps 683 mmHg 72%
    20:00 -6°C° 0 mm 3 mps 684 mmHg 71%
    21:00 -6°C° 0 mm 3 mps 684 mmHg 71%
    22:00 -6°C° 0 mm 3 mps 684 mmHg 70%
    23:00 -6°C° 0 mm 3 mps 684 mmHg 70%

    26 February, Tuesday

    Time Temperature Precipitation Wind Pressure Humidity
    00:00 -6°C° 0 mm 3 mps 683 mmHg 69%
    01:00 -6°C° 0 mm 3 mps 683 mmHg 68%
    02:00 -6°C° 0 mm 3 mps 683 mmHg 68%
    03:00 -6°C° 0 mm 3 mps 683 mmHg 68%
    04:00 -6°C° 0 mm 3 mps 682 mmHg 67%
    05:00 -6°C° 0 mm 3 mps 683 mmHg 67%
    06:00 -6°C° 0 mm 3 mps 683 mmHg 68%
    07:00 -5°C° 0 mm 3 mps 683 mmHg 68%
    08:00 -2°C° 0 mm 3 mps 683 mmHg 64%
    09:00 0°C° 0 mm 3 mps 683 mmHg 61%
    10:00 +2°C° 0 mm 3 mps 683 mmHg 58%
    11:00 +3°C° 0 mm 3 mps 683 mmHg 56%
    12:00 +4°C° 0 mm 3 mps 682 mmHg 55%
    13:00 +5°C° 0 mm 3 mps 682 mmHg 54%
    14:00 +5°C° 0 mm 3 mps 682 mmHg 56%
    15:00 +4°C° 0 mm 3 mps 681 mmHg 58%
    16:00 +4°C° 0 mm 3 mps 681 mmHg 60%
    17:00 +3°C° 0 mm 2 mps 681 mmHg 64%
    18:00 +2°C° 0 mm 2 mps 681 mmHg 68%
    19:00 -1°C° 0 mm 2 mps 680 mmHg 72%
    20:00 -1°C° 0 mm 2 mps 680 mmHg 71%
    21:00 -1°C° 0 mm 2 mps 680 mmHg 70%
    22:00 -1°C° 0 mm 2 mps 680 mmHg 68%
    23:00 -1°C° 0 mm 2 mps 679 mmHg 67%

    27 February, Wednesday

    Time Temperature Precipitation Wind Pressure Humidity
    00:00 +1°C° 0 mm 2 mps 679 mmHg 66%
    01:00 +1°C° 0 mm 2 mps 678 mmHg 65%
    02:00 +1°C° 0 mm 2 mps 678 mmHg 65%
    03:00 +1°C° 0 mm 2 mps 678 mmHg 66%
    04:00 +1°C° 0 mm 2 mps 677 mmHg 66%
    05:00 0°C° 0 mm 3 mps 677 mmHg 69%
    06:00 0°C° 0 mm 3 mps 677 mmHg 72%
    07:00 0°C° 0 mm 3 mps 677 mmHg 74%
    08:00 0°C° 0 mm 5 mps 677 mmHg 68%
    09:00 +1°C° 0 mm 6 mps 678 mmHg 62%
    10:00 +2°C° 0 mm 7 mps 678 mmHg 57%
    11:00 +2°C° 0 mm 7 mps 678 mmHg 56%
    12:00 +2°C° 0 mm 7 mps 677 mmHg 55%
    13:00 +3°C° 0 mm 7 mps 677 mmHg 54%
    14:00 +2°C° 0 mm 7 mps 677 mmHg 56%
    15:00 +2°C° 0 mm 6 mps 677 mmHg 59%
    16:00 +1°C° 0 mm 6 mps 677 mmHg 61%
    17:00 0°C° 0 mm 5 mps 678 mmHg 66%
    18:00 -1°C° 0 mm 4 mps 678 mmHg 72%
    19:00 -2°C° 0 mm 4 mps 678 mmHg 77%
    20:00 -1°C° 0 mm 3 mps 678 mmHg 78%
    21:00 -2°C° 0 mm 3 mps 679 mmHg 79%
    22:00 -2°C° 0 mm 3 mps 679 mmHg 80%
    23:00 -2°C° 0 mm 3 mps 679 mmHg 81%
    Show more